Wind_Speed
5 4 4 2 5 8 10 10 12 12 12 14 13 18 19 21 22 22 20 20 20 22 22 22 23 29 31 30 35 31 26 26 30 26 21 18 19 22 19 13 12 9 8
5 7 5 3 3 7 9 10 7 11 15 15 15 20 19 22 22 21 23 23 22 21 19 21 25 28 36 33 31 28 27 19 22 23 20 15 12 13 10 10 10 10 8
10 6 8 3 3 8 10 11 10 10 15 16 17 19 20 21 19 19 21 20 20 17 14 19 27 33 28 24 26 29 25 20 16 14 17 16 14 13 11 12 9 10 10
13 6 9 2 6 9 10 11 14 14 15 16 16 16 17 16 15 15 17 17 12 15 14 25 28 28 31 28 24 26 22 15 13 14 15 15 17 14 11 12 11 10 6
14 9 12 7 12 11 12 14 16 17 18 16 15 17 17 14 13 16 18 18 12 16 18 23 24 29 29 28 26 25 19 16 16 13 13 18 16 16 11 9 10 9 10
15 11 11 12 11 13 10 13 15 18 18 14 14 15 15 16 18 17 19 19 19 20 21 22 22 27 28 24 21 17 14 15 14 13 14 12 10 8 7 8 8 10 12
16 13 9 17 15 15 15 14 11 11 13 12 14 17 20 20 20 19 22 20 20 21 26 28 25 26 25 20 15 17 15 15 10 9 6 6 4 3 2 6 9 12 13
18 15 10 20 17 14 18 16 12 12 10 12 17 17 19 21 19 17 16 16 20 21 22 21 23 23 21 20 20 16 16 16 15 11 15 9 8 10 11 13 16 14 14
21 19 15 21 18 18 18 19 17 13 10 13 16 18 20 23 18 18 19 21 21 19 16 17 19 17 17 16 18 22 18 18 14 12 12 15 10 11 12 15 16 16 17
22 23 16 17 21 20 19 16 19 18 13 10 12 14 16 19 18 18 19 21 19 17 15 15 16 17 17 17 19 20 17 18 13 14 12 9 7 5 5 5 6 5 7
20 22 19 18 22 17 20 17 14 19 19 14 10 12 16 18 18 17 17 16 18 18 16 17 18 17 17 16 15 15 14 14 13 10 7 3 1 5 7 6 5 7 10
23 24 23 20 23 22 21 20 16 18 20 17 14 10 12 17 18 18 16 13 12 15 16 16 16 18 19 18 16 16 14 11 9 5 5 7 7 5 0 3 7 11 13
25 27 26 22 22 24 22 22 20 19 21 21 19 16 13 13 18 20 19 14 13 14 14 16 18 20 21 19 16 13 11 10 9 8 10 8 3 2 7 8 6 7 8
27 29 28 26 25 24 22 23 21 21 25 23 22 21 17 16 18 23 25 20 18 17 17 19 18 18 18 16 15 14 12 9 9 12 10 5 5 4 8 7 7 8 10
30 30 32 29 27 25 24 24 21 20 23 26 25 24 20 20 18 22 27 25 23 20 20 20 20 20 20 19 16 12 9 11 15 12 7 6 7 6 2 5 7 3 8
34 33 33 33 31 27 24 24 22 19 19 25 20 18 18 17 14 16 24 26 26 25 24 23 20 19 18 16 14 13 16 16 15 12 8 1 1 3 3 4 5 6 7
38 37 35 35 35 31 27 25 23 19 20 15 23 19 18 16 16 15 22 27 28 29 26 23 19 18 15 13 16 17 19 20 15 11 4 1 4 4 6 4 3 5 7
39 37 38 37 36 34 30 27 26 25 27 25 25 26 24 25 22 17 19 26 32 32 30 25 22 19 17 18 19 22 25 23 19 13 7 6 8 6 4 5 5 7 8
39 40 39 38 36 34 31 27 27 27 27 28 27 30 29 26 24 27 25 27 31 32 30 27 26 25 21 22 24 28 28 24 18 10 14 8 5 8 6 4 3 5 9
40 42 42 39 38 33 31 32 30 30 30 29 32 32 35 33 32 31 36 33 30 27 27 29 30 26 23 27 30 29 27 20 16 18 11 7 11 10 7 4 3 6 9
40 41 44 43 41 40 36 33 34 31 34 33 32 28 30 36 38 38 36 38 34 30 28 31 31 29 30 32 30 27 23 20 19 12 11 15 13 9 7 4 3 8 10
37 40 43 46 44 40 39 37 33 37 36 35 35 33 30 30 35 42 41 40 38 33 34 33 30 31 33 37 34 28 25 23 20 20 20 16 11 8 6 2 5 9 11
39 36 36 43 45 44 33 34 38 35 40 38 39 39 36 35 37 33 42 41 40 40 38 35 30 36 38 36 29 28 28 24 19 20 21 16 11 8 6 1 4 7 10
33 31 27 34 41 44 43 41 37 37 41 35 44 44 41 40 41 43 41 43 44 45 38 36 37 43 39 35 34 32 27 24 24 23 18 14 11 9 5 1 3 6 9
24 27 28 25 27 34 38 39 36 35 38 32 35 39 43 44 45 46 43 41 42 44 46 45 43 39 36 38 38 30 26 22 23 20 17 14 11 8 5 2 2 7 9
25 23 22 15 28 30 29 32 38 34 31 37 34 37 37 39 44 44 45 43 44 45 41 40 37 39 40 35 30 27 27 28 23 19 16 13 10 8 4 2 3 6 8
Wind_Direction
159 148 120 49 23 37 49 77 109 93 98 122 127 143 146 148 154 156 150 148 154 156 156 162 157 161 162 161 168 158 153 150 144 152 159 159 168 182 198 206 206 206 211
167 144 130 171 66 79 52 81 110 114 112 122 131 140 143 143 150 153 150 144 136 138 155 159 161 164 158 151 155 160 154 166 162 158 160 171 189 183 196 205 193 201 205
177 154 153 204 107 101 72 69 87 130 127 122 132 138 142 146 147 159 166 161 156 149 142 165 163 162 165 169 157 158 155 143 159 179 186 200 199 191 190 188 199 208 212
186 167 163 151 126 114 102 83 82 110 117 113 117 129 134 141 151 163 170 170 166 156 153 153 153 161 155 156 159 149 152 153 163 183 195 191 197 192 196 206 214 235 263
190 173 164 144 122 113 101 99 105 96 112 118 117 138 146 150 161 168 163 155 157 152 138 148 152 151 151 142 143 147 148 161 167 177 186 178 181 194 200 206 229 250 264
194 182 168 157 144 141 128 110 108 109 108 114 109 128 140 133 126 141 146 150 146 152 152 151 146 147 144 142 135 142 157 170 172 170 165 161 181 175 184 224 247 254 263
194 186 173 158 163 158 145 133 132 129 110 109 120 117 127 133 134 125 115 134 128 136 140 142 142 148 160 159 157 159 171 179 173 170 172 133 171 77 341 271 270 268 282
192 193 184 165 177 174 162 157 153 148 134 125 134 129 121 122 129 132 129 123 130 136 143 145 148 150 157 165 164 167 177 176 192 212 227 227 252 252 252 261 266 278 273
192 198 189 179 187 175 175 174 165 152 147 139 142 138 135 132 127 125 131 134 135 136 141 149 155 147 152 164 179 176 176 182 179 183 182 202 220 234 244 258 269 277 277
192 202 194 185 191 184 190 186 186 180 171 161 154 156 152 147 144 147 146 146 147 151 157 164 172 173 173 176 174 185 185 192 202 211 218 227 247 264 258 257 258 274 316
189 202 199 192 198 195 194 199 192 185 175 173 179 171 178 171 163 164 166 168 176 169 174 178 175 176 178 176 173 175 179 183 183 185 188 171 214 250 249 258 285 333 342
191 200 201 196 198 199 201 206 206 189 181 179 200 199 188 190 192 186 186 187 185 189 190 185 178 178 179 178 175 172 177 180 177 170 195 217 229 230 81 5 337 331 336
193 201 203 200 203 206 207 210 211 201 187 189 197 210 215 203 197 194 197 196 187 176 173 173 172 174 174 174 178 186 195 208 217 211 202 190 152 344 323 316 321 345 0
195 202 204 201 203 206 212 218 220 212 202 198 202 208 218 209 202 199 198 198 187 178 170 172 173 176 179 184 194 202 212 217 211 221 210 214 249 275 314 335 340 331 320
196 205 206 205 206 208 217 221 226 228 217 210 210 219 218 214 204 203 200 196 192 188 185 186 189 192 196 202 209 219 234 222 215 208 196 213 256 275 302 322 317 355 30
198 206 209 206 207 212 218 217 228 237 221 217 218 216 212 223 212 211 207 202 198 197 195 199 198 203 207 216 226 195 187 207 200 188 194 272 35 355 4 68 50 20 -0
202 208 212 210 209 212 215 218 218 213 208 210 212 211 218 221 217 219 209 206 207 208 208 209 209 212 219 202 192 201 204 211 205 195 211 237 308 161 134 99 58 48 24
206 212 214 214 213 216 220 223 223 216 208 208 208 206 216 220 224 217 208 205 207 213 218 220 223 223 214 219 227 227 216 203 200 208 221 169 131 130 131 115 60 30 23
207 210 216 218 217 218 222 225 224 223 221 220 212 210 211 217 215 216 215 215 213 215 219 222 226 219 223 229 223 217 209 198 199 192 149 134 146 173 154 112 69 33 16
210 212 213 215 216 216 221 225 225 223 226 229 228 223 217 218 217 213 217 219 223 225 222 221 217 217 216 209 200 197 192 188 167 155 162 189 171 174 151 134 68 30 12
211 215 216 216 217 217 221 223 225 227 226 230 236 237 236 229 225 225 220 221 222 221 222 221 223 226 218 210 206 198 185 173 168 176 183 179 178 163 152 128 54 23 3
213 217 218 217 220 219 220 225 227 230 230 231 236 238 239 241 237 232 229 224 217 216 221 225 226 223 220 213 210 196 183 175 180 180 179 183 168 162 166 122 32 6 354
210 216 220 219 219 218 220 222 224 230 231 229 231 235 233 232 239 238 234 226 215 219 220 226 226 211 204 203 200 193 181 177 168 181 188 178 174 173 174 112 1 348 350
211 210 221 221 222 224 224 225 226 226 230 236 235 235 236 236 235 230 229 224 216 218 226 232 227 214 197 184 176 173 173 168 175 188 189 181 180 179 168 241 332 342 360
204 214 219 224 230 230 231 231 228 232 233 239 251 243 234 232 226 222 223 225 221 220 226 216 201 196 191 181 174 171 164 171 188 186 188 188 186 181 202 247 326 359 354
210 206 201 210 224 230 232 235 230 234 239 241 246 236 227 224 221 219 217 218 216 211 207 197 193 186 176 171 168 163 170 185 184 186 188 190 187 192 213 230 357 356 352
Height
1469 1470 1470 1469 1468 1467 1465 1464 1464 1462 1462 1463 1464 1466 1469 1472 1476 1480 1482 1484 1487 1489 1492 1495 1497 1501 1505 1509 1515 1519 1522 1530 1532 1540 1543 1548 1553 1558 1562 1565 1566 1567 1569
1469 1470 1471 1470 1470 1469 1468 1466 1466 1467 1466 1467 1468 1470 1472 1476 1480 1483 1485 1488 1490 1492 1495 1498 1500 1505 1510 1514 1519 1523 1527 1534 1537 1541 1546 1549 1553 1557 1560 1563 1565 1567 1570
1468 1470 1471 1471 1471 1472 1470 1469 1468 1468 1468 1470 1472 1475 1477 1479 1482 1485 1488 1490 1493 1496 1498 1499 1501 1506 1512 1516 1520 1525 1530 1535 1540 1544 1547 1550 1553 1557 1558 1561 1564 1566 1566
1467 1469 1471 1472 1473 1473 1473 1473 1471 1471 1472 1474 1475 1477 1480 1482 1485 1487 1489 1491 1494 1497 1499 1501 1504 1508 1513 1518 1522 1526 1531 1537 1541 1545 1549 1550 1554 1556 1558 1560 1561 1562 1563
1466 1468 1471 1473 1475 1476 1476 1476 1476 1476 1477 1478 1478 1479 1481 1484 1486 1489 1490 1492 1494 1497 1500 1504 1507 1511 1516 1520 1524 1529 1534 1538 1543 1546 1548 1551 1551 1554 1555 1558 1560 1563 1562
1465 1468 1470 1473 1476 1478 1478 1480 1480 1481 1481 1482 1482 1483 1484 1486 1488 1491 1492 1494 1496 1498 1501 1506 1511 1516 1521 1524 1529 1533 1537 1541 1545 1547 1549 1548 1552 1553 1556 1560 1561 1563 1564
1464 1467 1470 1473 1477 1479 1480 1482 1483 1483 1485 1485 1487 1488 1488 1490 1493 1495 1495 1496 1500 1501 1505 1509 1514 1519 1524 1527 1531 1536 1540 1543 1546 1548 1550 1549 1554 1554 1556 1562 1562 1563 1561
1463 1466 1469 1473 1476 1479 1481 1483 1484 1486 1488 1488 1489 1491 1492 1494 1496 1498 1500 1501 1504 1507 1511 1514 1518 1522 1526 1530 1533 1537 1542 1544 1548 1549 1551 1554 1554 1556 1558 1562 1562 1558 1559
1462 1464 1467 1472 1475 1478 1481 1484 1486 1487 1489 1491 1493 1494 1496 1498 1500 1502 1504 1506 1508 1510 1513 1517 1520 1523 1527 1531 1534 1538 1542 1545 1548 1551 1552 1554 1556 1557 1558 1560 1557 1557 1557
1460 1463 1466 1470 1473 1477 1480 1483 1486 1489 1490 1492 1495 1498 1500 1501 1503 1505 1508 1510 1511 1513 1516 1519 1523 1526 1529 1532 1535 1539 1542 1545 1548 1550 1552 1554 1555 1556 1555 1556 1556 1553 1551
1457 1461 1464 1467 1471 1475 1478 1482 1485 1488 1491 1493 1495 1498 1500 1503 1505 1507 1509 1511 1513 1515 1518 1521 1523 1527 1530 1533 1536 1539 1541 1544 1546 1549 1551 1553 1552 1552 1554 1552 1550 1549 1547
1453 1457 1461 1465 1469 1473 1476 1479 1483 1486 1490 1492 1494 1496 1499 1502 1505 1507 1509 1512 1513 1516 1518 1521 1523 1527 1530 1534 1537 1540 1543 1545 1546 1548 1548 1549 1548 1547 1548 1548 1546 1546 1546
1450 1454 1458 1462 1466 1469 1473 1477 1480 1483 1486 1490 1492 1495 1497 1499 1502 1505 1508 1510 1513 1515 1518 1521 1524 1527 1531 1534 1537 1539 1541 1542 1544 1545 1545 1545 1547 1548 1547 1546 1545 1546 1544
1446 1450 1454 1458 1462 1466 1469 1473 1476 1479 1483 1486 1489 1491 1493 1496 1499 1502 1505 1509 1511 1514 1518 1521 1524 1527 1531 1533 1536 1538 1540 1541 1541 1540 1542 1544 1546 1545 1545 1545 1543 1540 1539
1441 1446 1450 1454 1458 1462 1465 1468 1471 1476 1479 1481 1485 1488 1490 1492 1495 1499 1502 1506 1510 1514 1517 1520 1523 1526 1529 1531 1533 1535 1536 1536 1536 1538 1540 1541 1541 1540 1539 1537 1537 1537 1538
1437 1440 1444 1449 1453 1457 1461 1466 1469 1472 1475 1479 1482 1484 1487 1490 1494 1497 1501 1505 1509 1512 1515 1518 1520 1523 1525 1528 1530 1531 1531 1532 1534 1536 1537 1537 1537 1537 1539 1538 1538 1538 1537
1431 1435 1439 1444 1448 1452 1456 1460 1464 1469 1471 1475 1479 1482 1485 1488 1491 1494 1497 1501 1505 1508 1511 1514 1517 1519 1521 1524 1525 1526 1528 1529 1531 1532 1533 1533 1533 1534 1534 1536 1537 1537 1535
1426 1431 1434 1438 1443 1447 1451 1455 1459 1463 1466 1469 1473 1477 1480 1484 1488 1491 1494 1497 1500 1502 1506 1509 1512 1515 1516 1518 1520 1521 1523 1525 1526 1527 1529 1531 1533 1536 1536 1534 1535 1535 1534
1419 1425 1429 1433 1437 1443 1447 1451 1455 1459 1462 1465 1468 1472 1475 1479 1482 1486 1488 1489 1492 1496 1500 1504 1506 1508 1510 1512 1514 1516 1518 1520 1522 1525 1527 1528 1527 1530 1532 1534 1532 1531 1531
1412 1417 1423 1428 1433 1438 1442 1445 1449 1453 1456 1459 1462 1465 1469 1473 1475 1478 1481 1483 1486 1491 1494 1496 1497 1500 1503 1506 1508 1511 1514 1517 1520 1522 1523 1526 1525 1528 1530 1530 1531 1529 1528
1404 1410 1416 1421 1426 1430 1434 1439 1442 1447 1449 1451 1455 1460 1464 1467 1470 1473 1474 1477 1480 1485 1487 1488 1491 1495 1498 1500 1502 1505 1509 1513 1516 1519 1522 1522 1523 1525 1527 1527 1528 1527 1526
1398 1403 1409 1413 1419 1424 1428 1431 1436 1438 1441 1444 1447 1451 1456 1459 1461 1464 1467 1470 1474 1474 1478 1481 1484 1487 1489 1491 1494 1498 1502 1506 1509 1512 1516 1521 1523 1524 1526 1526 1525 1524 1523
1392 1397 1402 1407 1412 1417 1422 1425 1429 1431 1433 1435 1437 1437 1442 1448 1452 1455 1457 1463 1468 1469 1468 1472 1478 1481 1483 1485 1489 1492 1496 1500 1507 1511 1514 1516 1519 1521 1522 1523 1522 1521 1520
1389 1392 1396 1399 1403 1408 1413 1417 1420 1422 1426 1429 1430 1431 1432 1437 1441 1445 1448 1453 1457 1461 1466 1470 1468 1474 1476 1480 1484 1488 1493 1498 1499 1508 1512 1514 1516 1518 1520 1520 1519 1518 1516
1387 1390 1391 1395 1397 1400 1405 1408 1412 1416 1420 1422 1424 1425 1425 1427 1430 1435 1439 1442 1448 1452 1454 1456 1462 1467 1472 1476 1479 1484 1490 1495 1503 1506 1509 1511 1514 1516 1517 1517 1516 1514 1513
1383 1384 1386 1388 1392 1395 1398 1401 1407 1410 1412 1413 1417 1417 1418 1420 1422 1426 1429 1432 1436 1441 1444 1456 1461 1462 1466 1476 1479 1484 1490 1495 1500 1504 1507 1510 1512 1513 1514 1515 1514 1513 1511